Location: Cheyres
(46.8153°N, 6.7877°E)
Time: 13:38:16
(UTC+00:00)

QB50P2 - Pass Details

Date: 28 June 2022
Orbit: 590 x 605 km, 97.9° (Epoch: 18 August)

Event Time Altitude Azimuth Distance (km) Brightness Sun altitude
Rises 01:08:26 0° 12° (NNE) 2,858 ? -16.9°
Reaches altitude 10° 01:10:36 10° 11° (NNE) 1,953 ? -16.7°
Maximum altitude 01:14:51 81° 285° (WNW) 617 ? -16.4°
Enters shadow 01:16:49 31° 202° (SSW) 1,062 ? -16.3°
